User: anonymous   Login
Location: Unspecified
(0.0000°N, 0.0000°E)
Time: 02:58:22
(UTC+00:00)
Language:

Hubble Space Telescope - Orbit

View from above orbital plane
View from above orbital plane
View from above satellite
View from above satellite

Ground track
Ground track

The orbit data is extracted from the following two-line orbital elements,

1 20580U 90037B   17293.37142715  .00000719  00000-0  33327-4 0  9995
2 20580  28.4695 260.2650 0002949  81.7888  49.6731 15.08892383309218
Epoch (UTC): 20 October 2017 08:54:51
Eccentricity: 0.0002949
inclination: 28.4695°
perigee height: 537 km
apogee height: 541 km
right ascension of ascending node: 260.2650°
argument of perigee: 81.7888°
revolutions per day: 15.08892383
mean anomaly at epoch: 49.6731°
orbit number at epoch: 30921

The dashed part of the orbit path shows where the satellite is in the earth's shadow,  

DLR